| time (UTC) | temp F | wind direction | speed MPH | gust MPH | rain 1hr in | rain 24hr in | rain mn in | humidity % | barometer mb |
| 20260903094105 | 80 | 168 | 10.0 | 14.0 | 0.00 | 0.00 | 0.00 | 74 | 1013.4 |
| 20260903092604 | 80 | 166 | 8.0 | 14.0 | 0.00 | 0.00 | 0.00 | 73 | 1013.6 |
| 20260903091605 | 81 | 169 | 8.0 | 12.0 | 0.00 | 0.00 | 0.00 | 72 | 1013.6 |
| 20260903091105 | 81 | 164 | 9.0 | 12.0 | 0.00 | 0.00 | 0.00 | 72 | 1013.6 |
| 20260903090605 | 81 | 170 | 9.0 | 12.0 | 0.00 | 0.00 | 0.00 | 72 | 1013.6 |
| 20260903090104 | 81 | 163 | 9.0 | 12.0 | 0.00 | 0.00 | 0.00 | 72 | 1013.7 |
| 20260903085604 | 81 | 163 | 7.0 | 12.0 | 0.00 | 0.00 | 0.00 | 71 | 1013.7 |
| 20260903085105 | 81 | 163 | 9.0 | 14.0 | 0.00 | 0.00 | 0.00 | 71 | 1013.6 |
| 20260903084604 | 81 | 153 | 10.0 | 14.0 | 0.00 | 0.00 | 0.00 | 71 | 1013.5 |
| 20260903084105 | 82 | 149 | 9.0 | 14.0 | 0.00 | 0.00 | 0.00 | 71 | 1013.5 |
| 20260903083604 | 82 | 162 | 9.0 | 14.0 | 0.00 | 0.00 | 0.00 | 70 | 1013.5 |
| 20260903083105 | 82 | 151 | 9.0 | 14.0 | 0.00 | 0.00 | 0.00 | 70 | 1013.5 |
| 20260903081604 | 82 | 151 | 10.0 | 17.0 | 0.00 | 0.00 | 0.00 | 69 | 1013.5 |
| 20260903081104 | 82 | 174 | 11.0 | 17.0 | 0.00 | 0.00 | 0.00 | 69 | 1013.5 |
| 20260903080604 | 82 | 156 | 10.0 | 15.0 | 0.00 | 0.00 | 0.00 | 69 | 1013.5 |
| 20260903080105 | 82 | 162 | 9.0 | 15.0 | 0.00 | 0.00 | 0.00 | 68 | 1013.5 |
| 20260903075604 | 83 | 150 | 7.0 | 13.0 | 0.00 | 0.00 | 0.00 | 68 | 1013.6 |
| 20260903075104 | 83 | 160 | 9.0 | 14.0 | 0.00 | 0.00 | 0.00 | 68 | 1013.6 |
| 20260903074604 | 83 | 157 | 9.0 | 17.0 | 0.00 | 0.00 | 0.00 | 68 | 1013.5 |
| 20260903074104 | 83 | 149 | 10.0 | 17.0 | 0.00 | 0.00 | 0.00 | 67 | 1013.5 |
| 20260903073605 | 83 | 159 | 10.0 | 17.0 | 0.00 | 0.00 | 0.00 | 67 | 1013.5 |
| 20260903073105 | 83 | 157 | 10.0 | 17.0 | 0.00 | 0.00 | 0.00 | 67 | 1013.5 |
| 20260903072604 | 83 | 174 | 10.0 | 17.0 | 0.00 | 0.00 | 0.00 | 67 | 1013.6 |
| 20260903072104 | 83 | 155 | 9.0 | 17.0 | 0.00 | 0.00 | 0.00 | 66 | 1013.6 |
| 20260903071605 | 84 | 165 | 10.0 | 17.0 | 0.00 | 0.00 | 0.00 | 66 | 1013.7 |
| 20260903070104 | 84 | 165 | 11.0 | 20.0 | 0.00 | 0.00 | 0.00 | 65 | 1013.7 |
| 20260903065604 | 84 | 163 | 12.0 | 20.0 | 0.00 | 0.00 | 0.00 | 65 | 1013.6 |
| 20260903065105 | 84 | 172 | 10.0 | 20.0 | 0.00 | 0.00 | 0.00 | 64 | 1013.5 |
| 20260903064604 | 85 | 166 | 14.0 | 20.0 | 0.00 | 0.00 | 0.00 | 64 | 1013.5 |
| 20260903064104 | 85 | 159 | 12.0 | 20.0 | 0.00 | 0.00 | 0.00 | 64 | 1013.5 |
| 20260903063605 | 85 | 170 | 14.0 | 20.0 | 0.00 | 0.00 | 0.00 | 63 | 1013.5 |
| 20260903062604 | 85 | 153 | 14.0 | 24.0 | 0.00 | 0.00 | 0.00 | 62 | 1013.4 |
| 20260903061605 | 86 | 156 | 14.0 | 24.0 | 0.00 | 0.00 | 0.00 | 61 | 1013.4 |
| 20260903061104 | 86 | 154 | 12.0 | 20.0 | 0.00 | 0.00 | 0.00 | 60 | 1013.4 |
| 20260903060605 | 86 | 153 | 13.0 | 20.0 | 0.00 | 0.00 | 0.00 | 60 | 1013.4 |
| 20260903055604 | 86 | 159 | 12.0 | 23.0 | 0.00 | 0.00 | 0.00 | 60 | 1013.4 |
| 20260903055105 | 86 | 165 | 13.0 | 23.0 | 0.00 | 0.00 | 0.00 | 60 | 1013.3 |
| 20260903054605 | 86 | 164 | 13.0 | 23.0 | 0.00 | 0.00 | 0.00 | 60 | 1013.3 |
| 20260903053605 | 87 | 149 | 14.0 | 23.0 | 0.00 | 0.00 | 0.00 | 59 | 1013.3 |
| 20260903053105 | 87 | 149 | 14.0 | 23.0 | 0.00 | 0.00 | 0.00 | 58 | 1013.3 |
| 20260903052604 | 87 | 159 | 14.0 | 23.0 | 0.00 | 0.00 | 0.00 | 57 | 1013.3 |
| 20260903052104 | 87 | 160 | 16.0 | 23.0 | 0.00 | 0.00 | 0.00 | 57 | 1013.3 |
| 20260903051104 | 88 | 161 | 11.0 | 18.0 | 0.00 | 0.00 | 0.00 | 55 | 1013.3 |
| 20260903050605 | 88 | 162 | 10.0 | 16.0 | 0.00 | 0.00 | 0.00 | 55 | 1013.3 |
| 20260903050104 | 88 | 164 | 12.0 | 15.0 | 0.00 | 0.00 | 0.00 | 55 | 1013.2 |
| 20260903045605 | 88 | 152 | 10.0 | 15.0 | 0.00 | 0.00 | 0.00 | 55 | 1013.2 |
| 20260903044605 | 89 | 170 | 10.0 | 17.0 | 0.00 | 0.00 | 0.00 | 54 | 1013.2 |
| 20260903044104 | 89 | 166 | 11.0 | 18.0 | 0.00 | 0.00 | 0.00 | 54 | 1013.2 |
| 20260903043605 | 89 | 168 | 11.0 | 18.0 | 0.00 | 0.00 | 0.00 | 53 | 1013.2 |
| 20260903042604 | 89 | 172 | 12.0 | 18.0 | 0.00 | 0.00 | 0.00 | 53 | 1013.2 |
| 20260903042104 | 89 | 157 | 10.0 | 18.0 | 0.00 | 0.00 | 0.00 | 53 | 1013.2 |
| 20260903041604 | 89 | 168 | 9.0 | 15.0 | 0.00 | 0.00 | 0.00 | 53 | 1013.2 |
| 20260903040604 | 90 | 159 | 9.0 | 15.0 | 0.00 | 0.00 | 0.00 | 52 | 1013.2 |
| 20260903040105 | 90 | 159 | 10.0 | 16.0 | 0.00 | 0.00 | 0.00 | 52 | 1013.2 |
| 20260903035104 | 90 | 156 | 12.0 | 17.0 | 0.00 | 0.00 | 0.00 | 51 | 1013.2 |
| 20260903034105 | 91 | 154 | 13.0 | 18.0 | 0.00 | 0.00 | 0.00 | 50 | 1013.1 |
| 20260903033604 | 91 | 155 | 13.0 | 17.0 | 0.00 | 0.00 | 0.00 | 50 | 1013.2 |
| 20260903033104 | 91 | 152 | 11.0 | 15.0 | 0.00 | 0.00 | 0.00 | 49 | 1013.2 |
| 20260903032604 | 91 | 147 | 10.0 | 15.0 | 0.00 | 0.00 | 0.00 | 49 | 1013.2 |
| 20260903032105 | 91 | 150 | 9.0 | 16.0 | 0.00 | 0.00 | 0.00 | 49 | 1013.2 |
| 20260903031604 | 91 | 149 | 12.0 | 16.0 | 0.00 | 0.00 | 0.00 | 48 | 1013.2 |
| 20260903031104 | 91 | 150 | 8.0 | 15.0 | 0.00 | 0.00 | 0.00 | 48 | 1013.2 |
| 20260903030604 | 92 | 155 | 9.0 | 14.0 | 0.00 | 0.00 | 0.00 | 47 | 1013.1 |
| 20260903030105 | 92 | 152 | 9.0 | 15.0 | 0.00 | 0.00 | 0.00 | 47 | 1013.0 |
| 20260903025605 | 92 | 141 | 10.0 | 15.0 | 0.00 | 0.00 | 0.00 | 47 | 1013.1 |
| 20260903025105 | 92 | 134 | 9.0 | 16.0 | 0.00 | 0.00 | 0.00 | 47 | 1013.1 |
| 20260903024604 | 92 | 143 | 9.0 | 17.0 | 0.00 | 0.00 | 0.00 | 46 | 1013.1 |
| 20260903024104 | 92 | 136 | 9.0 | 17.0 | 0.00 | 0.00 | 0.00 | 46 | 1013.0 |
| 20260903023605 | 92 | 152 | 9.0 | 17.0 | 0.00 | 0.00 | 0.00 | 46 | 1012.9 |
| 20260903023104 | 93 | 153 | 9.0 | 16.0 | 0.00 | 0.00 | 0.00 | 46 | 1012.9 |
| 20260903022605 | 93 | 151 | 9.0 | 14.0 | 0.00 | 0.00 | 0.00 | 46 | 1012.9 |
| 20260903022104 | 93 | 138 | 9.0 | 14.0 | 0.00 | 0.00 | 0.00 | 46 | 1012.8 |
| 20260903021605 | 93 | 148 | 8.0 | 14.0 | 0.00 | 0.00 | 0.00 | 46 | 1012.8 |
| 20260903020605 | 93 | 151 | 9.0 | 17.0 | 0.00 | 0.00 | 0.00 | 46 | 1012.6 |
| 20260903020104 | 93 | 146 | 10.0 | 17.0 | 0.00 | 0.00 | 0.00 | 46 | 1012.6 |
| 20260903015604 | 93 | 151 | 8.0 | 13.0 | 0.00 | 0.00 | 0.00 | 46 | 1012.6 |
| 20260903015105 | 93 | 137 | 8.0 | 12.0 | 0.00 | 0.00 | 0.00 | 46 | 1012.5 |
| 20260903014605 | 93 | 149 | 8.0 | 12.0 | 0.00 | 0.00 | 0.00 | 45 | 1012.4 |
| 20260903014104 | 94 | 154 | 5.0 | 9.0 | 0.00 | 0.00 | 0.00 | 45 | 1012.3 |
| 20260903013604 | 94 | 145 | 6.0 | 10.0 | 0.00 | 0.00 | 0.00 | 45 | 1012.2 |
| 20260903012604 | 94 | 152 | 6.0 | 9.0 | 0.00 | 0.00 | 0.00 | 44 | 1012.1 |
| 20260903012104 | 94 | 168 | 6.0 | 10.0 | 0.00 | 0.00 | 0.00 | 44 | 1012.0 |
| 20260903011605 | 94 | 152 | 7.0 | 10.0 | 0.00 | 0.00 | 0.00 | 44 | 1012.0 |
| 20260903011104 | 95 | 157 | 6.0 | 12.0 | 0.00 | 0.00 | 0.00 | 43 | 1012.0 |
| 20260903005604 | 95 | 169 | 8.0 | 13.0 | 0.00 | 0.00 | 0.00 | 43 | 1011.9 |
| 20260903004604 | 96 | 164 | 8.0 | 13.0 | 0.00 | 0.00 | 0.00 | 42 | 1011.8 |
| 20260903003604 | 96 | 154 | 9.0 | 15.0 | 0.00 | 0.00 | 0.00 | 41 | 1011.9 |
| 20260903003104 | 97 | 149 | 10.0 | 14.0 | 0.00 | 0.00 | 0.00 | 41 | 1011.8 |
| 20260903002605 | 97 | 161 | 10.0 | 14.0 | 0.00 | 0.00 | 0.00 | 41 | 1011.8 |
| 20260903002104 | 97 | 169 | 8.0 | 14.0 | 0.00 | 0.00 | 0.00 | 41 | 1011.8 |
| 20260903001604 | 98 | 149 | 9.0 | 14.0 | 0.00 | 0.00 | 0.00 | 40 | 1011.8 |
| 20260903001105 | 98 | 159 | 9.0 | 13.0 | 0.00 | 0.00 | 0.00 | 40 | 1011.8 |
| 20260903000604 | 98 | 152 | 7.0 | 12.0 | 0.00 | 0.00 | 0.00 | 39 | 1011.7 |
| 20260903000104 | 98 | 176 | 8.0 | 12.0 | 0.00 | 0.00 | 0.00 | 39 | 1011.7 |
| 20260902235605 | 99 | 169 | 9.0 | 12.0 | 0.00 | 0.00 | 0.00 | 38 | 1011.8 |
| 20260902235104 | 99 | 146 | 6.0 | 12.0 | 0.00 | 0.00 | 0.00 | 38 | 1011.8 |
| 20260902234604 | 99 | 164 | 7.0 | 14.0 | 0.00 | 0.00 | 0.00 | 38 | 1011.8 |
| 20260902234104 | 99 | 162 | 10.0 | 14.0 | 0.00 | 0.00 | 0.00 | 37 | 1011.8 |
| 20260902233604 | 99 | 151 | 9.0 | 12.0 | 0.00 | 0.00 | 0.00 | 37 | 1011.7 |
| 20260902233105 | 100 | 161 | 7.0 | 12.0 | 0.00 | 0.00 | 0.00 | 37 | 1011.8 |
| 20260902232604 | 100 | 192 | 8.0 | 17.0 | 0.00 | 0.00 | 0.00 | 36 | 1011.8 |
| 20260902232104 | 100 | 169 | 9.0 | 17.0 | 0.00 | 0.00 | 0.00 | 36 | 1011.8 |
| 20260902231604 | 100 | 154 | 8.0 | 15.0 | 0.00 | 0.00 | 0.00 | 36 | 1011.9 |
| 20260902231104 | 100 | 165 | 7.0 | 15.0 | 0.00 | 0.00 | 0.00 | 36 | 1011.9 |
| 20260902230605 | 100 | 157 | 7.0 | 15.0 | 0.00 | 0.00 | 0.00 | 36 | 1011.9 |
| 20260902230104 | 100 | 169 | 9.0 | 14.0 | 0.00 | 0.00 | 0.00 | 37 | 1011.9 |
| 20260902225604 | 100 | 144 | 9.0 | 16.0 | 0.00 | 0.00 | 0.00 | 36 | 1011.9 |
| 20260902225104 | 101 | 181 | 9.0 | 16.0 | 0.00 | 0.00 | 0.00 | 35 | 1011.9 |
| 20260902224104 | 101 | 145 | 11.0 | 16.0 | 0.00 | 0.00 | 0.00 | 35 | 1011.9 |
| 20260902223604 | 101 | 159 | 12.0 | 16.0 | 0.00 | 0.00 | 0.00 | 35 | 1011.9 |
| 20260902223104 | 101 | 156 | 10.0 | 14.0 | 0.00 | 0.00 | 0.00 | 36 | 1011.9 |
| 20260902222604 | 101 | 155 | 7.0 | 17.0 | 0.00 | 0.00 | 0.00 | 36 | 1012.0 |
| 20260902222104 | 101 | 159 | 9.0 | 17.0 | 0.00 | 0.00 | 0.00 | 37 | 1012.0 |
| 20260902221604 | 101 | 180 | 6.0 | 13.0 | 0.00 | 0.00 | 0.00 | 38 | 1012.1 |
| 20260902220106 | 101 | 156 | 8.0 | 20.0 | 0.00 | 0.00 | 0.00 | 36 | 1012.2 |
| 20260902215604 | 101 | 163 | 11.0 | 20.0 | 0.00 | 0.00 | 0.00 | 37 | 1012.2 |
| 20260902215104 | 101 | 169 | 8.0 | 13.0 | 0.00 | 0.00 | 0.00 | 37 | 1012.3 |
| 20260902214604 | 101 | 107 | 8.0 | 14.0 | 0.00 | 0.00 | 0.00 | 37 | 1012.3 |
| 20260902214104 | 101 | 125 | 6.0 | 14.0 | 0.00 | 0.00 | 0.00 | 38 | 1012.3 |
| 20260902213604 | 101 | 113 | 5.0 | 15.0 | 0.00 | 0.00 | 0.00 | 38 | 1012.5 |
| 20260902213104 | 101 | 155 | 10.0 | 15.0 | 0.00 | 0.00 | 0.00 | 38 | 1012.5 |
| 20260902212604 | 101 | 158 | 10.0 | 15.0 | 0.00 | 0.00 | 0.00 | 37 | 1012.6 |
| 20260902212104 | 101 | 125 | 8.0 | 20.0 | 0.00 | 0.00 | 0.00 | 38 | 1012.6 |
| 20260902211604 | 101 | 163 | 10.0 | 20.0 | 0.00 | 0.00 | 0.00 | 37 | 1012.6 |
| 20260902210605 | 101 | 123 | 6.0 | 16.0 | 0.00 | 0.00 | 0.00 | 37 | 1012.8 |
| 20260902210105 | 101 | 195 | 11.0 | 16.0 | 0.00 | 0.00 | 0.00 | 36 | 1012.9 |
| 20260902205604 | 101 | 183 | 7.0 | 15.0 | 0.00 | 0.00 | 0.00 | 38 | 1012.9 |
| 20260902204104 | 101 | 150 | 12.0 | 17.0 | 0.00 | 0.00 | 0.00 | 39 | 1013.1 |
| 20260902203604 | 101 | 132 | 9.0 | 16.0 | 0.00 | 0.00 | 0.00 | 39 | 1013.2 |
| 20260902203104 | 101 | 145 | 7.0 | 16.0 | 0.00 | 0.00 | 0.00 | 39 | 1013.2 |
| 20260902202604 | 101 | 135 | 5.0 | 16.0 | 0.00 | 0.00 | 0.00 | 40 | 1013.3 |
| 20260902202104 | 101 | 137 | 7.0 | 16.0 | 0.00 | 0.00 | 0.00 | 40 | 1013.4 |
| 20260902201604 | 101 | 170 | 10.0 | 16.0 | 0.00 | 0.00 | 0.00 | 39 | 1013.4 |
| 20260902201104 | 100 | 151 | 8.0 | 15.0 | 0.00 | 0.00 | 0.00 | 40 | 1013.5 |
| 20260902200604 | 100 | 145 | 7.0 | 18.0 | 0.00 | 0.00 | 0.00 | 39 | 1013.5 |
| 20260902200104 | 100 | 156 | 10.0 | 18.0 | 0.00 | 0.00 | 0.00 | 40 | 1013.6 |
| 20260902195104 | 100 | 156 | 10.0 | 15.0 | 0.00 | 0.00 | 0.00 | 40 | 1013.6 |
| 20260902194604 | 100 | 116 | 8.0 | 17.0 | 0.00 | 0.00 | 0.00 | 41 | 1013.8 |
| 20260902194104 | 100 | 134 | 10.0 | 17.0 | 0.00 | 0.00 | 0.00 | 41 | 1013.9 |
| 20260902193104 | 100 | 155 | 7.0 | 17.0 | 0.00 | 0.00 | 0.00 | 42 | 1014.1 |
| 20260902192603 | 100 | 177 | 9.0 | 17.0 | 0.00 | 0.00 | 0.00 | 39 | 1014.1 |
| 20260902192105 | 100 | 159 | 6.0 | 20.0 | 0.00 | 0.00 | 0.00 | 40 | 1014.2 |
| 20260902191604 | 100 | 128 | 9.0 | 20.0 | 0.00 | 0.00 | 0.00 | 41 | 1014.3 |
| 20260902191104 | 100 | 125 | 8.0 | 14.0 | 0.00 | 0.00 | 0.00 | 41 | 1014.3 |
| 20260902190604 | 100 | 189 | 8.0 | 15.0 | 0.00 | 0.00 | 0.00 | 41 | 1014.4 |
| 20260902185604 | 100 | 140 | 10.0 | 20.0 | 0.00 | 0.00 | 0.00 | 40 | 1014.5 |
| 20260902185105 | 99 | 109 | 5.0 | 13.0 | 0.00 | 0.00 | 0.00 | 40 | 1014.5 |
| 20260902184605 | 99 | 140 | 5.0 | 15.0 | 0.00 | 0.00 | 0.00 | 42 | 1014.6 |
| 20260902184104 | 100 | 209 | 7.0 | 15.0 | 0.00 | 0.00 | 0.00 | 40 | 1014.7 |
| 20260902183604 | 99 | 140 | 5.0 | 14.0 | 0.00 | 0.00 | 0.00 | 42 | 1014.8 |
| 20260902183104 | 99 | 134 | 9.0 | 14.0 | 0.00 | 0.00 | 0.00 | 41 | 1015.0 |
| 20260902182604 | 99 | 122 | 7.0 | 15.0 | 0.00 | 0.00 | 0.00 | 41 | 1015.0 |
| 20260902182104 | 98 | 172 | 9.0 | 15.0 | 0.00 | 0.00 | 0.00 | 43 | 1015.2 |
| 20260902181604 | 99 | 185 | 7.0 | 16.0 | 0.00 | 0.00 | 0.00 | 43 | 1015.2 |
| 20260902181104 | 98 | 184 | 10.0 | 18.0 | 0.00 | 0.00 | 0.00 | 42 | 1015.3 |
| 20260902180603 | 98 | 177 | 9.0 | 18.0 | 0.00 | 0.00 | 0.00 | 43 | 1015.4 |
| 20260902180104 | 98 | 186 | 5.0 | 13.0 | 0.00 | 0.00 | 0.00 | 45 | 1015.5 |
| 20260902175104 | 97 | 198 | 9.0 | 15.0 | 0.00 | 0.00 | 0.00 | 44 | 1015.7 |
| 20260902174605 | 97 | 194 | 9.0 | 16.0 | 0.00 | 0.00 | 0.00 | 45 | 1015.7 |
| 20260902174104 | 97 | 179 | 10.0 | 18.0 | 0.00 | 0.00 | 0.00 | 46 | 1015.8 |
| 20260902173604 | 97 | 144 | 7.0 | 18.0 | 0.00 | 0.00 | 0.00 | 46 | 1015.9 |
| 20260902173104 | 96 | 165 | 10.0 | 18.0 | 0.00 | 0.00 | 0.00 | 47 | 1015.9 |
| 20260902171604 | 96 | 169 | 11.0 | 18.0 | 0.00 | 0.00 | 0.00 | 48 | 1016.1 |
| 20260902171104 | 96 | 151 | 10.0 | 18.0 | 0.00 | 0.00 | 0.00 | 48 | 1016.2 |
| 20260902170603 | 96 | 172 | 9.0 | 16.0 | 0.00 | 0.00 | 0.00 | 48 | 1016.3 |
| 20260902170104 | 95 | 173 | 9.0 | 16.0 | 0.00 | 0.00 | 0.00 | 48 | 1016.3 |
| 20260902165604 | 95 | 178 | 9.0 | 18.0 | 0.00 | 0.00 | 0.00 | 49 | 1016.4 |
| 20260902165104 | 94 | 175 | 10.0 | 18.0 | 0.00 | 0.00 | 0.00 | 49 | 1016.4 |
| 20260902164604 | 94 | 198 | 10.0 | 15.0 | 0.00 | 0.00 | 0.00 | 49 | 1016.5 |
| 20260902164104 | 94 | 201 | 9.0 | 15.0 | 0.00 | 0.00 | 0.00 | 50 | 1016.5 |
| 20260902163605 | 94 | 149 | 9.0 | 17.0 | 0.00 | 0.00 | 0.00 | 51 | 1016.5 |
| 20260902163104 | 94 | 152 | 11.0 | 17.0 | 0.00 | 0.00 | 0.00 | 51 | 1016.7 |
| 20260902162605 | 93 | 157 | 9.0 | 17.0 | 0.00 | 0.00 | 0.00 | 51 | 1016.6 |
| 20260902162105 | 93 | 184 | 10.0 | 15.0 | 0.00 | 0.00 | 0.00 | 52 | 1016.7 |
| 20260902161605 | 93 | 190 | 9.0 | 15.0 | 0.00 | 0.00 | 0.00 | 51 | 1016.7 |
| 20260902161104 | 93 | 183 | 10.0 | 15.0 | 0.00 | 0.00 | 0.00 | 52 | 1016.7 |
| 20260902160604 | 93 | 184 | 9.0 | 15.0 | 0.00 | 0.00 | 0.00 | 51 | 1016.7 |
| 20260902160104 | 92 | 168 | 10.0 | 16.0 | 0.00 | 0.00 | 0.00 | 53 | 1016.7 |
| 20260902155604 | 92 | 180 | 10.0 | 16.0 | 0.00 | 0.00 | 0.00 | 53 | 1016.8 |
| 20260902155104 | 92 | 188 | 10.0 | 16.0 | 0.00 | 0.00 | 0.00 | 53 | 1016.9 |
| 20260902154604 | 91 | 186 | 10.0 | 20.0 | 0.00 | 0.00 | 0.00 | 54 | 1016.8 |
| 20260902154104 | 91 | 169 | 9.0 | 20.0 | 0.00 | 0.00 | 0.00 | 54 | 1016.8 |
| 20260902153104 | 90 | 197 | 10.0 | 16.0 | 0.00 | 0.00 | 0.00 | 55 | 1016.9 |
| 20260902152603 | 90 | 184 | 12.0 | 16.0 | 0.00 | 0.00 | 0.00 | 55 | 1016.8 |
| 20260902152104 | 90 | 164 | 8.0 | 21.0 | 0.00 | 0.00 | 0.00 | 56 | 1016.8 |
| 20260902151104 | 89 | 173 | 11.0 | 20.0 | 0.00 | 0.00 | 0.00 | 57 | 1016.8 |
| 20260902150604 | 89 | 187 | 9.0 | 18.0 | 0.00 | 0.00 | 0.00 | 58 | 1016.9 |
| 20260902150104 | 88 | 188 | 12.0 | 17.0 | 0.00 | 0.00 | 0.00 | 58 | 1016.9 |
| 20260902145604 | 88 | 186 | 12.0 | 16.0 | 0.00 | 0.00 | 0.00 | 59 | 1016.9 |
| 20260902144604 | 87 | 197 | 12.0 | 20.0 | 0.00 | 0.00 | 0.00 | 60 | 1017.0 |
| 20260902144104 | 87 | 188 | 12.0 | 20.0 | 0.00 | 0.00 | 0.00 | 60 | 1016.9 |
| 20260902143605 | 87 | 181 | 12.0 | 22.0 | 0.00 | 0.00 | 0.00 | 61 | 1016.9 |
| 20260902143104 | 86 | 178 | 10.0 | 22.0 | 0.00 | 0.00 | 0.00 | 61 | 1016.9 |
| 20260902142605 | 86 | 184 | 10.0 | 18.0 | 0.00 | 0.00 | 0.00 | 62 | 1016.9 |
| 20260902142104 | 86 | 186 | 11.0 | 18.0 | 0.00 | 0.00 | 0.00 | 62 | 1016.9 |
| 20260902141604 | 85 | 180 | 10.0 | 16.0 | 0.00 | 0.00 | 0.00 | 63 | 1016.8 |
| 20260902140604 | 84 | 175 | 10.0 | 20.0 | 0.00 | 0.00 | 0.00 | 65 | 1016.8 |
| 20260902140103 | 84 | 186 | 9.0 | 20.0 | 0.00 | 0.00 | 0.00 | 66 | 1016.8 |
| 20260902135603 | 83 | 174 | 10.0 | 15.0 | 0.00 | 0.00 | 0.00 | 66 | 1016.9 |
| 20260902135104 | 83 | 166 | 10.0 | 15.0 | 0.00 | 0.00 | 0.00 | 67 | 1016.8 |
| 20260902134604 | 83 | 192 | 10.0 | 15.0 | 0.00 | 0.00 | 0.00 | 68 | 1016.9 |
| 20260902134103 | 82 | 171 | 10.0 | 15.0 | 0.00 | 0.00 | 0.00 | 68 | 1016.8 |
| 20260902133104 | 82 | 172 | 8.0 | 14.0 | 0.00 | 0.00 | 0.00 | 69 | 1016.8 |
| 20260902132604 | 81 | 183 | 9.0 | 14.0 | 0.00 | 0.00 | 0.00 | 69 | 1016.8 |
| 20260902132104 | 81 | 179 | 9.0 | 13.0 | 0.00 | 0.00 | 0.00 | 70 | 1016.8 |
| 20260902131104 | 81 | 167 | 6.0 | 13.0 | 0.00 | 0.00 | 0.00 | 71 | 1016.9 |
| 20260902130604 | 80 | 185 | 9.0 | 13.0 | 0.00 | 0.00 | 0.00 | 71 | 1016.8 |
| 20260902130104 | 80 | 186 | 7.0 | 12.0 | 0.00 | 0.00 | 0.00 | 71 | 1016.8 |
| 20260902125604 | 80 | 173 | 6.0 | 13.0 | 0.00 | 0.00 | 0.00 | 71 | 1016.7 |
| 20260902125104 | 80 | 179 | 7.0 | 13.0 | 0.00 | 0.00 | 0.00 | 71 | 1016.6 |
| 20260902124604 | 80 | 179 | 7.0 | 14.0 | 0.00 | 0.00 | 0.00 | 71 | 1016.6 |
| 20260902124104 | 80 | 173 | 7.0 | 14.0 | 0.00 | 0.00 | 0.00 | 71 | 1016.5 |
| 20260902123604 | 80 | 178 | 10.0 | 13.0 | 0.00 | 0.00 | 0.00 | 71 | 1016.5 |
| 20260902123103 | 80 | 168 | 7.0 | 13.0 | 0.00 | 0.00 | 0.00 | 71 | 1016.5 |
| 20260902122604 | 80 | 174 | 9.0 | 13.0 | 0.00 | 0.00 | 0.00 | 71 | 1016.4 |
| 20260902121604 | 79 | 165 | 9.0 | 13.0 | 0.00 | 0.00 | 0.00 | 71 | 1016.3 |
| 20260902121104 | 79 | 163 | 8.0 | 13.0 | 0.00 | 0.00 | 0.00 | 71 | 1016.2 |
| 20260902120604 | 79 | 160 | 8.0 | 13.0 | 0.00 | 0.00 | 0.00 | 71 | 1016.2 |
| 20260902120104 | 79 | 162 | 8.0 | 12.0 | 0.00 | 0.00 | 0.00 | 71 | 1016.1 |
| 20260902115604 | 80 | 167 | 7.0 | 13.0 | 0.00 | 0.00 | 0.00 | 71 | 1016.0 |
| 20260902115104 | 80 | 168 | 8.0 | 14.0 | 0.00 | 0.00 | 0.00 | 70 | 1016.0 |
| 20260902114605 | 80 | 186 | 7.0 | 14.0 | 0.00 | 0.00 | 0.00 | 70 | 1015.9 |
| 20260902114103 | 80 | 167 | 7.0 | 12.0 | 0.00 | 0.00 | 0.00 | 70 | 1015.9 |
| 20260902113604 | 80 | 172 | 8.0 | 12.0 | 0.00 | 0.00 | 0.00 | 70 | 1015.9 |
| 20260902113104 | 80 | 176 | 7.0 | 14.0 | 0.00 | 0.00 | 0.00 | 69 | 1015.8 |
| 20260902112604 | 80 | 179 | 9.0 | 14.0 | 0.00 | 0.00 | 0.00 | 69 | 1015.8 |
| 20260902112103 | 80 | 168 | 7.0 | 14.0 | 0.00 | 0.00 | 0.00 | 69 | 1015.7 |
| 20260902111604 | 80 | 183 | 8.0 | 14.0 | 0.00 | 0.00 | 0.00 | 68 | 1015.8 |
| 20260902111104 | 80 | 176 | 9.0 | 15.0 | 0.00 | 0.00 | 0.00 | 68 | 1015.7 |
| 20260902110604 | 80 | 181 | 10.0 | 15.0 | 0.00 | 0.00 | 0.00 | 68 | 1015.7 |
| 20260902110104 | 80 | 180 | 8.0 | 13.0 | 0.00 | 0.00 | 0.00 | 68 | 1015.6 |
| 20260902105604 | 81 | 177 | 9.0 | 14.0 | 0.00 | 0.00 | 0.00 | 68 | 1015.6 |
| 20260902104604 | 81 | 174 | 9.0 | 14.0 | 0.00 | 0.00 | 0.00 | 67 | 1015.7 |
| 20260902104104 | 81 | 184 | 8.0 | 14.0 | 0.00 | 0.00 | 0.00 | 67 | 1015.7 |
| 20260902103604 | 81 | 174 | 9.0 | 14.0 | 0.00 | 0.00 | 0.00 | 67 | 1015.6 |
| 20260902103103 | 81 | 178 | 7.0 | 13.0 | 0.00 | 0.00 | 0.00 | 67 | 1015.6 |
| 20260902102104 | 81 | 171 | 7.0 | 14.0 | 0.00 | 0.00 | 0.00 | 66 | 1015.5 |
| 20260902101603 | 81 | 169 | 7.0 | 12.0 | 0.00 | 0.00 | 0.00 | 66 | 1015.5 |
| 20260902101104 | 81 | 168 | 7.0 | 12.0 | 0.00 | 0.00 | 0.00 | 66 | 1015.5 |
| 20260902100604 | 81 | 164 | 7.0 | 12.0 | 0.00 | 0.00 | 0.00 | 66 | 1015.4 |
| 20260902100104 | 82 | 165 | 9.0 | 12.0 | 0.00 | 0.00 | 0.00 | 65 | 1015.4 |
| 20260902095104 | 82 | 173 | 7.0 | 12.0 | 0.00 | 0.00 | 0.00 | 65 | 1015.4 |
| 20260902094603 | 82 | 169 | 7.0 | 12.0 | 0.00 | 0.00 | 0.00 | 65 | 1015.4 |